EW3502 Weather Reports


time (UTC)temp
F
wind
direction
speed
knots
gust
knots
rain 1hr
in
rain 24hr
in
rain mn
in
humidity
%
barometer
mb
20260506113509 39 326 2.6 7.8 0.00 0.00 0.00 82 1011.8
20260506113009 39 12 3.5 7.0 0.00 0.00 0.00 81 1011.7
20260506112509 39 335 3.5 7.0 0.00 0.00 0.00 82 1011.7
20260506112008 39 355 3.5 7.8 0.00 0.00 0.00 82 1011.6
20260506111507 39 11 3.5 7.8 0.00 0.00 0.00 81 1011.4
20260506111006 39 348 2.6 7.0 0.00 0.00 0.00 82 1011.3
20260506110556 39 9 2.6 8.7 0.00 0.00 0.00 82 1011.3
20260506110055 39 333 4.3 8.7 0.00 0.00 0.00 82 1011.4
20260506105554 39 355 3.5 6.1 0.00 0.00 0.00 82 1011.3
20260506105053 39 360 3.5 6.1 0.00 0.00 0.00 82 1011.3
20260506104614 39 325 1.7 6.1 0.00 0.00 0.00 83 1011.2
20260506104051 38 22 1.7 6.1 0.00 0.00 0.00 82 1011.2
20260506103552 38 339 2.6 6.1 0.00 0.00 0.00 83 1011.2
20260506103051 38 350 2.6 5.2 0.00 0.00 0.00 83 1011.2
20260506102550 38 346 1.7 5.2 0.00 0.00 0.00 84 1011.2
20260506102049 38 17 0.9 2.6 0.00 0.00 0.00 85 1011.2
20260506101550 38 18 0.0 1.7 0.00 0.00 0.00 84 1011.2
20260506101049 39 18 0.0 1.7 0.00 0.00 0.00 83 1011.2
20260506100548 39 19 0.0 0.9 0.00 0.00 0.00 83 1011.3
20260506100047 39 19 0.0 1.7 0.00 0.00 0.00 83 1011.2
20260506095549 39 19 0.0 1.7 0.00 0.00 0.00 83 1011.1
20260506095046 39 19 0.9 3.5 0.00 0.00 0.00 82 1011.1
20260506094545 39 19 0.0 3.5 0.00 0.00 0.00 82 1011.1
20260506094043 39 19 0.9 4.3 0.00 0.00 0.00 82 1011.3
20260506093543 39 19 1.7 5.2 0.00 0.00 0.00 82 1011.3
20260506093043 39 19 1.7 6.1 0.00 0.00 0.00 82 1011.4
20260506092543 39 20 1.7 7.0 0.00 0.00 0.00 81 1011.4
20260506092043 39 19 1.7 7.0 0.00 0.00 0.00 81 1011.4
20260506091543 40 341 3.5 7.0 0.00 0.00 0.00 81 1011.3
20260506091046 40 11 3.5 7.0 0.00 0.00 0.00 81 1011.2
20260506090526 40 9 2.6 7.8 0.00 0.00 0.00 81 1011.3
20260506090022 40 9 4.3 7.8 0.00 0.00 0.00 81 1011.3
20260506085525 40 336 2.6 7.0 0.00 0.00 0.00 81 1011.3
20260506085021 40 9 3.5 7.0 0.00 0.00 0.00 81 1011.4
20260506084521 40 9 3.5 7.8 0.00 0.00 0.00 80 1011.5
20260506084024 40 329 3.5 7.8 0.00 0.00 0.00 79 1011.5
20260506083503 40 17 4.3 7.8 0.00 0.00 0.00 80 1011.4
20260506083003 40 349 4.3 7.8 0.00 0.00 0.00 81 1011.4
20260506082501 40 355 2.6 7.8 0.00 0.00 0.00 81 1011.3
20260506082001 40 13 4.3 7.8 0.00 0.00 0.00 81 1011.5
20260506081602 41 351 3.5 7.0 0.00 0.00 0.00 81 1011.5
20260506081100 41 9 2.6 7.8 0.00 0.00 0.00 82 1011.3
20260506080549 41 9 4.3 7.8 0.00 0.00 0.00 82 1011.1
20260506073047 41 17 3.5 7.8 0.00 0.00 0.00 83 1011.0
20260506072543 41 344 2.6 7.8 0.00 0.00 0.00 83 1011.0
20260506072043 41 348 2.6 7.0 0.00 0.00 0.00 83 1010.8
20260506071543 41 325 3.5 7.8 0.00 0.00 0.00 84 1010.8
20260506071042 41 355 4.3 7.8 0.00 0.00 0.00 85 1010.7
20260506070541 41 9 3.5 8.7 0.00 0.00 0.00 84 1010.6
20260506062036 40 355 1.7 4.3 0.00 0.00 0.00 86 1010.7
20260506061536 40 360 1.7 7.8 0.00 0.00 0.00 87 1010.8
20260506061035 40 355 1.7 7.8 0.00 0.00 0.00 87 1011.1
20260506060533 40 336 1.7 6.1 0.00 0.00 0.00 88 1011.1
20260506051016 40 326 0.0 6.1 0.00 0.00 0.00 83 1011.3
20260506050515 40 327 0.9 6.1 0.00 0.00 0.00 83 1011.1
20260506045013 40 267 0.9 6.1 0.00 0.00 0.00 82 1011.0
20260506044513 40 266 1.7 6.1 0.00 0.00 0.00 83 1011.1
20260506044012 40 262 1.7 7.0 0.00 0.00 0.00 82 1011.1
20260506043516 40 275 1.7 7.0 0.00 0.00 0.00 82 1011.1
20260506043016 40 273 1.7 7.0 0.00 0.00 0.00 82 1011.0
20260506042513 40 275 1.7 7.0 0.00 0.00 0.00 82 1011.2
20260506042010 40 264 3.5 7.0 0.00 0.00 0.00 82 1011.1
20260506041509 40 275 0.9 6.1 0.00 0.00 0.00 83 1011.1
20260506041008 40 275 1.7 6.1 0.00 0.00 0.00 82 1011.1
20260506040507 40 281 1.7 6.1 0.00 0.00 0.00 83 1011.1
20260506040150 40 283 0.0 4.3 0.00 0.00 0.00 82 1011.0
20260506035549 40 283 0.9 3.5 0.00 0.00 0.00 82 1010.9
20260506035149 40 283 0.0 5.2 0.00 0.00 0.00 82 1010.9
20260506034552 40 282 1.7 5.2 0.00 0.00 0.00 81 1011.0
20260506034047 40 284 0.0 5.2 0.00 0.00 0.00 81 1010.9
20260506033547 40 289 0.9 5.2 0.00 0.00 0.00 81 1011.0
20260506033035 40 291 0.0 3.5 0.00 0.00 0.00 81 1010.9
20260506032534 40 291 0.0 5.2 0.00 0.00 0.00 80 1010.9
20260506032035 40 292 0.0 4.3 0.00 0.00 0.00 80 1010.9
20260506031533 40 292 0.0 6.1 0.00 0.00 0.00 79 1011.0
20260506031034 40 292 0.9 6.1 0.00 0.00 0.00 79 1011.0
20260506030532 40 300 0.0 1.7 0.00 0.00 0.00 78 1010.9
20260506030030 40 300 0.0 5.2 0.00 0.00 0.00 77 1010.9
20260506025529 40 300 0.9 6.1 0.00 0.00 0.00 77 1010.9
20260506025028 40 303 2.6 6.1 0.00 0.00 0.00 77 1010.8
20260506024535 40 304 0.9 4.3 0.00 0.00 0.00 76 1010.9
20260506024027 41 304 1.7 5.2 0.00 0.00 0.00 76 1010.9
20260506023529 41 305 2.6 5.2 0.00 0.00 0.00 76 1010.8
20260506023026 41 306 1.7 6.1 0.00 0.00 0.00 76 1010.8
20260506022525 41 304 1.7 6.1 0.00 0.00 0.00 76 1010.9
20260506022025 41 307 1.7 5.2 0.00 0.00 0.00 75 1010.9
20260506021541 41 307 2.6 5.2 0.00 0.00 0.00 75 1010.8
20260506021023 41 304 0.9 6.1 0.00 0.00 0.00 75 1010.8
20260506020526 41 302 2.6 6.1 0.00 0.00 0.00 74 1010.8
20260506020022 41 292 2.6 7.0 0.00 0.00 0.00 74 1010.7
20260506015522 41 319 2.6 7.0 0.00 0.00 0.00 74 1010.7
20260506015021 41 306 1.7 5.2 0.00 0.00 0.00 74 1010.7
20260506014524 41 304 1.7 6.1 0.00 0.00 0.00 74 1010.7
20260506014018 41 298 1.7 7.0 0.00 0.00 0.00 74 1010.5
20260506013517 41 323 1.7 7.0 0.00 0.00 0.00 74 1010.4
20260506013005 41 327 2.6 7.0 0.00 0.00 0.00 74 1010.2
20260506012505 41 273 1.7 6.1 0.00 0.00 0.00 74 1010.2
20260506012003 41 265 1.7 6.1 0.00 0.00 0.00 74 1010.1
20260506011508 41 250 1.7 6.1 0.00 0.00 0.00 74 1010.1
20260506011002 42 273 2.6 7.0 0.00 0.00 0.00 74 1010.0
20260506010501 42 277 1.7 7.0 0.00 0.00 0.00 73 1010.0
20260506010000 42 279 3.5 9.6 0.00 0.00 0.00 73 1010.0
20260506005600 42 263 4.3 9.6 0.00 0.00 0.00 72 1009.9
20260506005059 42 252 4.3 7.8 0.00 0.00 0.00 71 1009.8
20260506004603 42 256 3.5 7.0 0.00 0.00 0.00 72 1009.8
20260506004058 42 263 2.6 7.0 0.00 0.00 0.00 72 1009.8
20260506003601 42 252 2.6 7.0 0.00 0.00 0.00 72 1009.7
20260506003103 42 254 3.5 7.0 0.00 0.00 0.00 71 1009.7
20260506002555 42 304 3.5 7.0 0.00 0.00 0.00 71 1009.6
20260506002055 42 260 2.6 7.8 0.00 0.00 0.00 71 1009.8
20260506001606 42 250 1.7 7.8 0.00 0.00 0.00 71 1009.7
20260506001053 43 265 0.9 7.0 0.00 0.00 0.00 70 1009.9
20260506000554 43 275 2.6 6.1 0.00 0.00 0.00 70 1009.9
20260506000053 43 257 1.7 7.8 0.00 0.00 0.00 70 1009.9
20260505235552 43 252 2.6 7.8 0.00 0.00 0.00 69 1009.8
20260505235051 43 241 2.6 7.8 0.00 0.00 0.00 69 1009.7
20260505234608 43 292 2.6 7.8 0.00 0.00 0.00 69 1009.6
20260505234049 43 260 3.5 7.8 0.00 0.00 0.00 68 1009.7
20260505233550 44 244 1.7 7.8 0.00 0.00 0.00 69 1009.7
20260505233050 44 258 1.7 7.8 0.00 0.00 0.00 68 1009.7
20260505232535 44 258 3.5 7.8 0.00 0.00 0.00 67 1009.6
20260505232032 44 257 1.7 7.8 0.00 0.00 0.00 67 1009.6
20260505231530 44 279 2.6 9.6 0.00 0.00 0.00 66 1009.6
20260505231026 44 259 3.5 11.3 0.00 0.00 0.00 66 1009.6
20260505230526 45 251 3.5 11.3 0.00 0.00 0.00 67 1009.5
20260505230025 45 257 3.5 7.8 0.00 0.00 0.00 67 1009.5
20260505225507 45 283 0.0 7.0 0.00 0.00 0.00 66 1009.5
20260505225007 46 286 1.7 7.0 0.00 0.00 0.00 66 1009.5
20260505224510 46 273 1.7 8.7 0.00 0.00 0.00 65 1009.4
20260505224006 46 278 4.3 8.7 0.00 0.00 0.00 66 1009.6
20260505223506 47 226 2.6 8.7 0.00 0.00 0.00 67 1009.7
20260505223007 47 282 4.3 8.7 0.00 0.00 0.00 65 1009.6
20260505222554 47 264 1.7 12.2 0.00 0.00 0.00 64 1009.7
20260505222054 48 267 4.3 12.2 0.00 0.00 0.00 62 1009.8
20260505221554 48 261 1.7 8.7 0.00 0.00 0.00 63 1009.7
20260505221053 48 311 0.9 8.7 0.00 0.00 0.00 63 1009.6
20260505220552 48 286 0.9 10.4 0.00 0.00 0.00 66 1009.7
20260505220051 47 269 2.6 7.8 0.00 0.00 0.00 68 1009.6
20260505215553 47 235 3.5 8.7 0.00 0.00 0.00 65 1009.6
20260505215051 47 261 4.3 8.7 0.00 0.00 0.00 65 1009.4
20260505214557 47 279 4.3 8.7 0.00 0.00 0.00 64 1009.4
20260505214051 48 232 1.7 8.7 0.00 0.00 0.00 65 1009.4
20260505213550 48 250 3.5 9.6 0.00 0.00 0.00 61 1009.2
20260505213053 48 272 3.5 9.6 0.00 0.00 0.00 62 1009.2
20260505212549 48 289 5.2 10.4 0.00 0.00 0.00 61 1009.3
20260505212050 48 296 2.6 10.4 0.00 0.00 0.00 61 1009.3
20260505211556 48 230 0.9 9.6 0.00 0.00 0.00 65 1009.4
20260505211046 47 271 1.7 9.6 0.00 0.00 0.00 65 1009.3
20260505210545 47 260 3.5 9.6 0.00 0.00 0.00 67 1009.2
20260505210043 46 277 2.6 10.4 0.00 0.00 0.00 67 1009.1
20260505205542 46 282 3.5 10.4 0.00 0.00 0.00 68 1009.0
20260505205040 46 233 5.2 10.4 0.00 0.00 0.00 68 1009.1
20260505204539 46 267 4.3 9.6 0.00 0.00 0.00 70 1009.1
20260505204037 46 266 4.3 9.6 0.00 0.00 0.00 69 1008.9
20260505203536 45 300 2.6 10.4 0.00 0.00 0.00 70 1008.9
20260505203049 46 269 5.2 10.4 0.00 0.00 0.00 68 1008.9
20260505202518 45 301 2.6 7.8 0.00 0.00 0.00 68 1008.9
20260505202017 45 284 0.9 10.4 0.00 0.00 0.00 71 1008.9
20260505201515 45 338 4.3 10.4 0.00 0.00 0.00 70 1008.8
20260505201018 45 231 3.5 7.8 0.00 0.00 0.00 71 1008.8
20260505200514 45 275 6.1 8.7 0.00 0.00 0.00 71 1008.9
20260505191037 46 244 6.1 16.5 0.00 0.00 0.00 67 1007.9
20260505190535 46 271 6.1 17.4 0.00 0.00 0.00 68 1007.9
20260505190035 46 299 6.1 17.4 0.00 0.00 0.00 69 1007.8
20260505185537 46 258 6.1 16.5 0.00 0.00 0.00 67 1007.8
20260505185033 46 274 7.0 16.5 0.00 0.00 0.00 66 1007.6
20260505184544 45 289 6.1 15.6 0.00 0.00 0.00 67 1007.6
20260505184016 45 287 8.7 15.6 0.00 0.00 0.00 68 1007.4
20260505183512 45 269 6.1 15.6 0.00 0.00 0.00 70 1007.4
20260505183014 45 313 5.2 16.5 0.00 0.00 0.00 71 1007.4
20260505182512 45 276 7.0 16.5 0.00 0.00 0.00 69 1007.6
20260505182012 45 275 6.1 13.0 0.00 0.00 0.00 71 1007.6
20260505181511 45 271 4.3 12.2 0.00 0.00 0.00 73 1007.4
20260505181059 45 342 5.2 12.2 0.00 0.00 0.00 72 1007.5
20260505180558 45 253 6.1 12.2 0.00 0.00 0.00 73 1007.3
20260505180104 45 231 4.3 12.2 0.00 0.00 0.00 73 1007.3
20260505175557 45 285 4.3 13.0 0.00 0.00 0.00 72 1007.3
20260505175104 45 288 6.1 13.0 0.00 0.00 0.00 71 1007.3
20260505174556 46 242 3.5 13.9 0.00 0.00 0.00 72 1007.3
20260505174056 46 286 7.0 13.9 0.00 0.00 0.00 71 1007.2
20260505173558 46 310 6.1 16.5 0.00 0.00 0.00 71 1007.1
20260505173053 46 245 4.3 16.5 0.00 0.00 0.00 70 1007.0
20260505172556 46 266 4.3 13.9 0.00 0.00 0.00 70 1006.9
20260505172053 46 218 4.3 13.0 0.00 0.00 0.00 70 1006.8
20260505171555 46 254 5.2 13.0 0.00 0.00 0.00 71 1006.8
20260505171050 46 300 3.5 19.1 0.00 0.00 0.00 72 1006.8
20260505170551 46 250 7.8 19.1 0.00 0.00 0.00 71 1006.7
20260505170048 46 283 5.2 13.9 0.00 0.00 0.00 72 1006.7
20260505165547 46 226 6.1 13.9 0.00 0.00 0.00 73 1006.7
20260505165046 46 206 6.1 15.6 0.00 0.00 0.00 75 1006.6
20260505164546 46 279 6.1 15.6 0.00 0.00 0.00 75 1006.6
20260505164047 45 254 5.2 11.3 0.00 0.00 0.00 76 1006.7
20260505163545 45 279 4.3 9.6 0.00 0.00 0.00 78 1006.8
20260505163042 44 235 5.2 10.4 0.00 0.00 0.00 80 1006.8
20260505162543 44 250 4.3 8.7 0.00 0.00 0.00 80 1006.8
20260505162040 44 279 3.5 9.6 0.00 0.00 0.00 81 1006.8
20260505161541 44 248 4.3 9.6 0.00 0.00 0.00 80 1006.6
20260505161024 44 273 2.6 9.6 0.00 0.00 0.00 81 1006.5
20260505160521 44 266 4.3 9.6 0.00 0.00 0.00 81 1006.5
20260505153007 44 307 3.5 10.4 0.00 0.00 0.00 81 1005.9
20260505152507 44 338 3.5 11.3 0.00 0.00 0.00 81 1006.1
20260505152005 44 271 4.3 11.3 0.00 0.00 0.00 80 1006.0
20260505151503 44 266 5.2 8.7 0.00 0.00 0.00 79 1005.8
20260505151001 44 281 2.6 9.6 0.00 0.00 0.00 79 1005.6
20260505150600 44 332 5.2 10.4 0.00 0.00 0.00 78 1005.2
20260505150502 44 313 5.2 10.4 0.00 0.00 0.00 78 1005.1
20260505140551 44 333 2.6 12.2 0.00 0.00 0.00 81 1004.1
20260505125003 43 321 4.3 11.3 0.00 0.00 0.00 84 1003.4
20260505124506 44 321 4.3 9.6 0.00 0.00 0.00 83 1003.5
20260505124102 44 345 2.6 9.6 0.00 0.00 0.00 84 1003.4
20260505123542 44 330 4.3 8.7 0.00 0.00 0.00 83 1003.3
20260505123043 44 321 3.5 11.3 0.00 0.00 0.00 83 1003.1
20260505122542 44 323 4.3 11.3 0.00 0.00 0.00 83 1003.0
20260505122040 44 336 3.5 10.4 0.00 0.00 0.00 84 1002.9
20260505121546 44 355 4.3 11.3 0.00 0.00 0.00 83 1002.8
20260505121039 44 311 3.5 10.4 0.00 0.00 0.00 83 1002.6
20260505120519 44 327 4.3 8.7 0.00 0.00 0.00 84 1002.6
20260505120023 44 29 5.2 8.7 0.00 0.00 0.00 84 1002.4
20260505115518 44 327 4.3 9.6 0.00 0.00 0.00 84 1002.3
20260505115016 44 345 3.5 8.7 0.00 0.00 0.00 85 1002.2
20260505114515 44 355 3.5 7.8 0.00 0.00 0.00 84 1002.0
20260505114015 44 355 3.5 8.7 0.00 0.00 0.00 85 1001.8